Location: Boissi�res
(45.2500°N, 2.3667°E)
Time: 23:44:38
(UTC+00:00)

ISS - Pass Details

Date: 25 September 2021
Orbit: 417 x 423 km, 51.6° (Epoch: 18 October)

Event Time Altitude Azimuth Distance (km) Brightness Sun altitude
Rises 19:43:19 0° 293° (WNW) 2,366 1.6 -21.7°
Reaches altitude 10° 19:45:36 10° 306° (NW) 1,502 0.1 -22.1°
Enters shadow 19:48:21 28° 360° (N) 829 -2.1 -22.5°
